Regional Weather Roundup
Issued by NWS

Home | Current Version | Previous Version | Text Only | Print | Product List | Glossary Off
Versions: 1 2 3 4 5 6 7 8 9 10 11 12 13 14 15 16 17 18 19 20 21 22 23 24 25 26 27 28 29 30 31 32 33 34 35 36 37 38 39 40 41 42 43 44 45 46 47 48 49 50

000
ASUS45 KBOU 181210
RWRCO

WEATHER ROUNDUP FOR COLORADO
NATIONAL WEATHER SERVICE DENVER/BOULDER CO
500 AM MST SAT NOV 18 2017

NOTE: "FAIR" INDICATES FEW OR NO CLOUDS BELOW 12000 FEET WITH NO
SIGNIFICANT WEATHER AND/OR OBSTRUCTIONS TO VISIBILITY.

COZ001>005-013-030-031-181300-
...NORTHWEST COLORADO...

CITY           SKY/WX    TMP DP  RH WIND       PRES   REMARKS
CRAIG          FAIR      12   8  84 CALM      30.33R
HAYDEN         CLOUDY    19  15  84 SW5       30.33R WCI  12
MEEKER         FAIR       9   6  88 MISG      30.33R
RABBIT EARS PA CLOUDY     9   5  85 W12G24    30.14R WCI  -6
STEAMBOAT SPGS FAIR      17  13  82 CALM      30.30R
WALDEN         FAIR      14   5  67 CALM      30.21R
$$

COZ006>008-011-181300-
...WEST CENTRAL VALLEYS...

CITY           SKY/WX    TMP DP  RH WIND       PRES   REMARKS
GRAND JUNCTION FAIR      20  14  77 CALM      30.37R
MONTROSE       FAIR      24  18  77 SE7       30.38R WCI  16
EAGLE          MOCLDY    16  12  84 E8        30.35R WCI   5
RIFLE          FAIR      20  17  88 S3        30.37R
DELTA          FAIR      28  20  72 NE7       30.36R WCI  20
NUCLA          FAIR      27  14  59 E5        30.37R WCI  21
$$

COZ017>023-064>068-181300-
...SOUTHWEST COLORADO...

CITY           SKY/WX    TMP DP  RH WIND       PRES   REMARKS
DURANGO        FAIR      28   5  37 SW6       30.17R WCI  22
CORTEZ         FAIR      27  13  55 NW6       30.28R WCI  20
PAGOSA SPRINGS FAIR      26  11  54 CALM      30.17R
TELLURIDE      NOT AVBL
WOLF CREEK PAS FAIR      10  -6  48 NW5       30.18R WCI   2
$$

COZ009-010-012-014-032>034-037-058>063-181300-
...CENTRAL COLORADO...

CITY           SKY/WX    TMP DP  RH WIND       PRES   REMARKS
ASPEN          CLOUDY    17  12  80 SW5       30.28R WCI  10
BUENA VISTA    FAIR      21   8  55 NW16      30.17R WCI   7
COPPER MTN     CLOUDY     7   1  78 MISG      30.14R
BERTHOUD PASS  HVY SNOW  -2 -13  60 MISG      30.02R VSB 1/4
COTTONWOOD PAS FAIR      21   3  45 W22G39    30.11R WCI   5
GUNNISON       FAIR      15   8  73 CALM      30.29R
KREMMLING      CLOUDY    27  12  54 NW5       30.29R WCI  21
LEADVILLE      CLOUDY     6   1  80 N7        30.19R WCI  -6
MONARCH PASS     N/A      3   0  85 W48G56    30.16R WCI -26
SALIDA         FAIR      23  13  65 NW3       30.27R
SUNLIGHT       CLOUDY   N/A N/A N/A MISG      30.25R
WILKERSON PASS   N/A      7   0  72 NW13G28   30.09R WCI  -9
$$

COZ069>075-181300-
...SAN LUIS VALLEY/SANGRE DE CRISTO MOUNTAINS...

CITY           SKY/WX    TMP DP  RH WIND       PRES   REMARKS
ALAMOSA        FAIR      22  10  60 NE10      30.19R WCI  11
DEL NORTE      FAIR      22   6  49 SE3       30.18R
LA VETA PASS   FAIR      18   5  57 SW14G28     N/A  WCI   4
SAGUACHE       FAIR      21   5  49 NW16      30.19R WCI   7
$$

COZ035-036-038>040-181300-
...NORTHERN COLORADO FRONT RANGE...

CITY           SKY/WX    TMP DP  RH WIND       PRES   REMARKS
DENVER INTL AP FAIR      28  20  71 W9        30.15R WCI  19
DMNS CITY PARK   N/A     29  19  64 MISG      30.17R
AURORA         PTCLDY    26  21  80 W6        30.16R WCI  20
FRONT RANGE AP FAIR      29  22  75 W8        30.16R WCI  21
ERIE MUNI ARPT FAIR      25  21  86 CALM      30.21R
BOULDER MUN AP FAIR      32  18  55 CALM      30.14R
CENTENNIAL     FAIR      28  19  69 NW7       30.15R WCI  21
BROOMFIELD     FAIR      27  19  74 W8        30.14S WCI  18
FORT COLLINS   FAIR      31  15  52 N12       30.14R WCI  22
LONGMONT       FAIR      29  22  75 S3        30.17R
$$

COZ041-046-047-076>085-087-088-181300-
...PIKES PEAK/PALMER DIVIDE AND SOUTHERN FOOTHILLS...

CITY           SKY/WX    TMP DP  RH WIND       PRES   REMARKS
COLO. SPRINGS  FAIR      27  20  75 N13       30.15R WCI  16
A. F. ACADEMY  PTCLDY    22  18  85 NW8       30.13R WCI  12
SCHRIEVER AFB  FAIR      26  18  72 N13       30.15R WCI  15
CHEYENNE MTN   FAIR      24  17  74 CALM      30.08R
ELLICOTT       NOT AVBL
FALCON         FAIR      23  18  80 N10       30.14R WCI  12
FORT CARSON    FAIR      27  19  73 N9        30.14R WCI  18
LIMON          FAIR      27  21  78 NW21      30.13R WCI  13
MONUMENT HILL  FAIR      18  14  86 N7        30.14R WCI   8
CANON CITY     FAIR      32  16  51 W6        30.16R WCI  26
WALSENBURG     FAIR      32  21  64 NW10      30.15R WCI  24
TRINIDAD       CLOUDY    33  24  69 N13       30.15R WCI  24
$$

COZ042>045-048>051-090-091-181300-
...NORTHEAST COLORADO...

CITY           SKY/WX    TMP DP  RH WIND       PRES   REMARKS
GREELEY ARPT   FAIR      28  19  69 N10       30.16R WCI  19
AKRON          FAIR      30  19  63 NW20      30.13R WCI  17
BURLINGTON     MOCLDY    36  27  69 NW21G33   30.08R
WRAY           NOT AVBL
YUMA           FAIR      32  23  69 NW20G29   30.10R WCI  20
STERLING       FAIR      32  23  69 NW20G25   30.12R WCI  20
HOLYOKE        FAIR      36  27  69 NW20G29   30.09R
FORT MORGAN    FAIR      31  18  60 NW16G23   30.14R WCI  19
$$

COZ086-089-092>099-181300-
...SOUTHEAST COLORADO...

CITY           SKY/WX    TMP DP  RH WIND       PRES   REMARKS
PUEBLO         FAIR      34  24  67 N15       30.16R WCI  24
LA JUNTA       FAIR      35  25  66 NW13      30.15R WCI  26
LAMAR          FAIR      38  23  55 N16G23    30.09R
SPRINGFIELD      N/A     35  29  78 NW30G41   30.06R WCI  22
$$



USA.gov is the U.S. government's official web portal to all federal, state and local government web resources and services.